Regional Weather Roundup
Issued by NWS

Home | Current Version | Previous Version | Text Only | Print | Product List | Glossary Off
Versions: 1 2 3 4 5 6 7 8 9 10 11 12 13 14 15 16 17 18 19 20 21 22 23 24 25 26 27 28 29 30 31 32 33 34 35 36 37 38 39 40 41 42 43 44 45 46 47 48 49 50

000
ASUS43 KFSD 300610
RWRSD

WEATHER ROUNDUP FOR SOUTH DAKOTA
NATIONAL WEATHER SERVICE SIOUX FALLS SD
100 AM CDT SAT APR 30 2016

NOTE: "FAIR" INDICATES FEW OR NO CLOUDS BELOW 12,000 FEET WITH NO
SIGNIFICANT WEATHER AND/OR OBSTRUCTIONS TO VISIBILITY.


SDZ001>005-009-010-012>017-300700-
NORTHWEST AND NORTH CENTRAL SOUTH DAKOTA

CITY           SKY/WX    TMP DP  RH WIND       PRES   REMARKS
BUFFALO          N/A     40  33  76 NE5       30.01S
FAITH            N/A     40  35  83 E5        30.06S
MOBRIDGE       MOCLDY    44  40  85 E6        30.06F
$$

SDZ012>016-024>037-041>051-057-063-072>074-300700-
SOUTHWEST AND SOUTH CENTRAL SOUTH DAKOTA

CITY           SKY/WX    TMP DP  RH WIND       PRES   REMARKS
RAPID CTY ARPT CLOUDY    40  37  89 N6        30.04F
PIERRE         CLOUDY    41  38  89 NE9       30.04S
CUSTER         CLOUDY    31  29  92 NE16G26   29.98S FOG     WCI  20
ELLSWORTH AFB  CLOUDY    41  38  87 N5        30.04S
PHILIP         CLOUDY    40  36  86 NE8       30.04S
PINE RIDGE     LGT RAIN  37  35  92 NE12      29.98S FOG
WINNER         CLOUDY    43  39  86 N7        30.00F
$$

SDZ004>011-016>023-039-040-300700-
NORTHEAST SOUTH DAKOTA

CITY           SKY/WX    TMP DP  RH WIND       PRES   REMARKS
ABERDEEN       CLEAR     40  36  86 N3        30.10S
WATERTOWN      CLOUDY    39  36  89 N3        30.08R
BROOKINGS      CLOUDY    39  36  89 E3        30.07S
SISSETON         N/A     39  36  89 N5        30.10R
$$

SDZ017-020-022-023-036>040-048>070-300700-
SOUTHEAST SOUTH DAKOTA

CITY           SKY/WX    TMP DP  RH WIND       PRES   REMARKS
SIOUX FALLS    CLOUDY    44  39  82 E6        30.06R
HURON          CLOUDY    42  39  89 NE7       30.06F
CHAMBERLAIN    PTCLDY    46  42  86 NE9       30.00F
MITCHELL       CLOUDY    46  42  86 NE12      30.04F
YANKTON        CLOUDY    45  39  81 NE12      30.02F
$$

ABBREVIATIONS USED IN REMARKS
   TC - TEMPERATURE IN CELSIUS
  WCI - WIND CHILL INDEX
   HX - HEAT INDEX
  VSB - VISIBILITY





USA.gov is the U.S. government's official web portal to all federal, state and local government web resources and services.